Change the Weather History Date:

Tuesday, May 28, 2013

  Actual Average Record
Temperature  
Mean Temperature 52 °F 55 °F  
Max Temperature 56 °F 66 °F 89 °F (1919)
Min Temperature 47 °F 44 °F 30 °F (1970)
Degree Days  
Heating Degree Days 13 10  
Month to date heating degree days 362 384  
Since 1 July heating degree days 8210 8453  
Cooling Degree Days 0 0  
Month to date cooling degree days 0 0  
Year to date cooling degree days 0 0  
Moisture  
Dew Point 44 °F    
Average Humidity 72    
Maximum Humidity 93    
Minimum Humidity 50    
Precipitation  
Precipitation 0.09 in 0.09 in 2.40 in (1896)
Month to date precipitation 2.36 2.30  
Year to date precipitation 14.17 10.17  
Sea Level Pressure  
Sea Level Pressure 29.89 in    
Wind  
Wind Speed 8 mph (ESE)    
Max Wind Speed 16 mph    
Max Gust Speed 24 mph    
Visibility 7 miles    
Events Rain    
T = Trace of Precipitation, MM = Missing Value Source: NWS Daily Summary

Daily Weather History Graph

Daily Weather History Graph

Search for Another Location

Airport or City:

Trip Planner

Search our weather history database for the weather conditions in past years. The results will help you decide how hot, cold, wet, or windy it might be!

Date:

Astronomy

May. 28, 2013 Rise Set
Actual Time 5:50 AM EDT 9:19 PM EDT
Civil Twilight 5:13 AM EDT 9:56 PM EDT
Nautical Twilight 4:23 AM EDT 10:46 PM EDT
Astronomical Twilight 3:19 AM EDT 11:51 PM EDT
Moon No Moon Rise 9:43 AM EDT (5/28)
Length of Visible Light 16h 43m
Length of Day
15h 28m
Waning Gibbous, 83% of the Moon is Illuminated
May 28
Waning Gibbous
May 31
Last Quarter
Jun 8
New
Jun 16
First Quarter
Jun 23
Full

Hourly Weather History & Observations

Time (EDT) Temp. Dew Point Humidity Pressure Visibility Wind Dir Wind Speed Gust Speed Precip Events Conditions
12:55 AM 50.0 °F 33.1 °F 52% 30.04 in 10.0 mi East 4.6 mph - N/A   Clear
1:55 AM 48.9 °F 30.9 °F 50% 30.03 in 10.0 mi East 4.6 mph - N/A   Clear
2:55 AM 48.9 °F 30.9 °F 50% 30.03 in 10.0 mi East 4.6 mph - N/A   Clear
3:55 AM 48.0 °F 32.0 °F 54% 30.01 in 10.0 mi ENE 4.6 mph - N/A   Clear
4:55 AM 46.9 °F 32.0 °F 56% 29.99 in 10.0 mi ENE 5.8 mph - N/A   Clear
5:55 AM 48.0 °F 33.1 °F 56% 29.99 in 10.0 mi ENE 4.6 mph - N/A   Mostly Cloudy
6:55 AM 48.9 °F 35.1 °F 59% 29.98 in 10.0 mi East 3.5 mph - N/A   Overcast
7:55 AM 52.0 °F 35.1 °F 53% 29.98 in 10.0 mi ESE 8.1 mph - N/A   Overcast
8:55 AM 53.1 °F 37.9 °F 57% 29.96 in 10.0 mi ESE 10.4 mph - N/A   Overcast
9:55 AM 55.0 °F 39.0 °F 55% 29.96 in 10.0 mi East 8.1 mph - N/A   Overcast
10:55 AM 55.0 °F 39.0 °F 55% 29.96 in 10.0 mi East 6.9 mph 20.7 mph N/A   Overcast
11:55 AM 54.0 °F 39.9 °F 59% 29.94 in 10.0 mi ESE 10.4 mph 19.6 mph N/A   Overcast
12:55 PM 53.1 °F 43.0 °F 69% 29.92 in 6.0 mi ESE 11.5 mph 18.4 mph 0.00 in Rain Light Rain
1:36 PM 55.9 °F 43.0 °F 62% 29.92 in 10.0 mi SE 9.2 mph - 0.01 in   Overcast
1:55 PM 55.9 °F 44.1 °F 64% 29.91 in 10.0 mi ESE 15.0 mph 20.7 mph 0.01 in   Overcast
2:55 PM 55.0 °F 46.9 °F 74% 29.88 in 10.0 mi ESE 12.7 mph 23.0 mph 0.00 in   Overcast
3:22 PM 55.9 °F 46.0 °F 69% 29.88 in 10.0 mi ESE 11.5 mph 20.7 mph N/A   Overcast
3:55 PM 55.0 °F 45.0 °F 69% 29.88 in 10.0 mi SE 15.0 mph 24.2 mph 0.00 in Rain Light Rain
4:44 PM 51.1 °F 46.9 °F 86% 29.88 in 2.5 mi ESE 10.4 mph - 0.04 in Rain Rain
4:52 PM 51.8 °F 46.4 °F 82% 29.88 in 3.0 mi East 10.4 mph 20.7 mph 0.05 in Rain Rain
4:55 PM 51.1 °F 46.9 °F 86% 29.88 in 4.0 mi East 10.4 mph 20.7 mph 0.06 in Rain Light Rain
5:19 PM 51.1 °F 46.9 °F 86% 29.87 in 5.0 mi East 6.9 mph - 0.00 in Rain Light Rain
5:42 PM 51.1 °F 48.0 °F 89% 29.87 in 5.0 mi ESE 9.2 mph - 0.01 in Rain Light Rain
5:53 PM 51.8 °F 48.2 °F 88% 29.86 in 4.0 mi ESE 10.4 mph 19.6 mph 0.01 in Rain Light Rain
5:55 PM 51.1 °F 48.0 °F 89% 29.87 in 4.0 mi ESE 11.5 mph 19.6 mph 0.01 in Rain Light Rain
6:10 PM 51.1 °F 46.9 °F 86% 29.86 in 5.0 mi SE 12.7 mph 24.2 mph 0.01 in   Overcast
6:55 PM 52.0 °F 48.9 °F 89% 29.83 in 6.0 mi East 10.4 mph 17.3 mph 0.01 in   Overcast
7:05 PM 52.0 °F 48.9 °F 89% 29.83 in 5.0 mi East 10.4 mph 17.3 mph 0.00 in Rain Light Rain
7:14 PM 52.0 °F 48.9 °F 89% 29.83 in 6.0 mi East 9.2 mph - 0.00 in Rain Light Rain
7:55 PM 51.1 °F 48.9 °F 92% 29.83 in 2.5 mi East 6.9 mph - 0.00 in   Overcast
8:21 PM 51.1 °F 48.9 °F 92% 29.82 in 3.0 mi ESE 8.1 mph - N/A   Overcast
8:55 PM 51.1 °F 48.9 °F 92% 29.81 in 4.0 mi East 8.1 mph - N/A   Overcast
9:26 PM 52.0 °F 48.9 °F 89% 29.80 in 5.0 mi ESE 5.8 mph - N/A   Overcast
9:55 PM 52.0 °F 48.9 °F 89% 29.80 in 7.0 mi ESE 6.9 mph - N/A   Overcast
10:55 PM 53.1 °F 51.1 °F 93% 29.79 in 3.0 mi ESE 6.9 mph - N/A   Overcast
11:06 PM 53.1 °F 51.1 °F 93% 29.79 in 2.5 mi SE 9.2 mph - N/A   Overcast
11:21 PM 53.1 °F 51.1 °F 93% 29.80 in 1.5 mi SE 6.9 mph - N/A   Overcast
11:50 PM 53.6 °F 51.8 °F 94% 29.77 in 0.8 mi ESE 6.9 mph - N/A   Mist
11:55 PM 53.1 °F 51.1 °F 93% 29.77 in 0.8 mi ESE 4.6 mph - N/A   Mist